Powrót do katalogu

STARLINK-36729

AktywnyŁącznośćVLEO
NORAD 67905·PAYLOAD·🇺🇸 United States

Wystrzelony Feb 22, 2026 z Vandenberg Space Force Base

Loading…

Następne Przeloty (najbliższe 24 godziny)

TLE

ŚwieżeSource: CelesTrak SupGP

Epoka: Sep 14, 2026, 21:40 UTC

1 67905C 26036B   26257.90326389  .00033484  00000+0  12131-2 0  2574
2 67905  42.9990 257.0672 0001199 263.3723 165.4266 15.27553808    12

Śledź STARLINK-36729 w czasie rzeczywistym z AllMySat

Download on the App Store